User: anonymous   Login
Location: La Tine
(46.4708°N, 7.0525°E)
Time: 18:52:42
(UTC+00:00)
Language:

Cosmos 2263 Rocket - Orbit

View from above orbital plane
View from above orbital plane
View from above satellite
View from above satellite

Ground track
Ground track

The orbit data is extracted from the following two-line orbital elements,

1 22803U 93059B   20330.86753166 -.00000042 +00000-0 +30416-5 0  9997
2 22803 070.9874 119.0994 0019573 270.2915 089.5965 14.16828914406169
Epoch (UTC): 25 November 2020 20:49:14
Eccentricity: 0.0019573
inclination: 70.9874°
perigee height: 822 km
apogee height: 850 km
right ascension of ascending node: 119.0994°
argument of perigee: 270.2915°
revolutions per day: 14.16828914
mean anomaly at epoch: 89.5965°
orbit number at epoch: 40616

The dashed part of the orbit path shows where the satellite is in the earth's shadow,  

DLR